Location: Miles
(41.4492°N, 81.6087°W)
Time: 07:53:47
(UTC+00:00)

Vanguard 1 Rocket - Pass Details

Date: 19 September 2024
Orbit: 650 x 4218 km, 34.3° (Epoch: 05 October)

Event Time Altitude Azimuth Distance (km) Brightness Sun altitude
Rises 12:38:10 0° 278° (W) 6,634 11.2 15.3°
Reaches altitude 10° 12:41:59 10° 274° (W) 5,993 11.0 16.0°
Maximum altitude 13:02:28 59° 203° (SSW) 4,483 11.1 19.7°
Drops below altitude 10° 13:27:19 10° 131° (SE) 7,041 13.4 24.1°
Sets 13:32:21 0° 128° (SE) 7,787 13.4 25.0°
